Content
SEND FEEDBACK

Daily
Averages
Monthly
Summary
United States of America

CASTALIA, OHIO


Home > North America > United States > Ohio
Elevation: 589 feet     Latitude: 41 27N     Longitude: 082 43W

WEATHER
 
SELECT A DAY
Number of Records: 183,666;   Date Range: 10/8/98 - 10/19/14
 
SHARE

PRINT THIS DATA

[ ← Previous Day ]
WEATHER ALMANAC - OCTOBER 8, 2013
[ Next Day → ]
[ °C ]   °F
We're sorry. There is no daily almanac available for Castalia, Ohio on October 8, 2013.
WEATHER BY HOUR - OCTOBER 8, 2013
[ °C ]   °F
Local TimeTemperatureDewpointHumidityBarometerVisibilityWind DirectionWind SpeedGust SpeedPrecipitationEventsConditions
1:53 AM48.9 °F45.0 °F86 %30.17 in10.0 miWSW (250°)5.8 mphMostly Cloudy
2:53 AM48.9 °F45.0 °F86 %30.18 in10.0 miWest (280°)4.6 mphMostly Cloudy
3:53 AM48.0 °F44.1 °F86 %30.19 in10.0 miWSW (250°)3.5 mphClear
4:53 AM46.0 °F43.0 °F89 %30.21 in10.0 miCalmClear
5:53 AM45.0 °F42.1 °F90 %30.22 in10.0 miCalmClear
6:53 AM44.1 °F41.0 °F89 %30.25 in9.0 miCalmClear
7:53 AM44.1 °F41.0 °F89 %30.27 in6.0 miSSW (210°)3.5 mph0.01 inClear
8:53 AM50.0 °F46.0 °F86 %30.30 in10.0 miSSW (210°)3.5 mphClear
9:53 AM55.0 °F48.9 °F80 %30.31 in10.0 miCalmClear
10:53 AM64.0 °F46.9 °F54 %30.31 in10.0 miVariable4.6 mphClear
11:53 AM64.0 °F43.0 °F46 %30.31 in10.0 miVariable4.6 mphClear
12:53 PM66.0 °F42.1 °F42 %30.31 in10.0 miEast (80°)4.6 mphClear
1:53 PM66.9 °F41.0 °F39 %30.29 in10.0 miVariable3.5 mphClear
2:53 PM69.1 °F39.9 °F35 %30.27 in10.0 miENE (70°)3.5 mphClear
3:53 PM68.0 °F41.0 °F37 %30.26 in10.0 miVariable4.6 mphClear
4:53 PM69.1 °F39.9 °F35 %30.26 in10.0 miVariable3.5 mphClear
5:53 PM66.0 °F46.0 °F48 %30.26 in10.0 miNE (50°)5.8 mphClear
6:53 PM60.1 °F46.9 °F62 %30.28 in10.0 miENE (70°)4.6 mphClear
7:53 PM55.0 °F48.0 °F77 %30.29 in10.0 miEast (80°)5.8 mphClear
8:53 PM51.1 °F46.0 °F83 %30.30 in10.0 miCalmClear
9:53 PM48.9 °F45.0 °F86 %30.30 in10.0 miCalmClear
10:53 PM50.0 °F46.0 °F86 %30.30 in10.0 miCalmClear
11:53 PM50.0 °F45.0 °F83 %30.29 in10.0 miESE (120°)3.5 mphClear
Hourly data recorded from KLPR, located miles away from Castalia, Ohio







STORIES FROM OUR PARTNERS